Location: Unspecified
(0.0000°N, 0.0000°E)
Time: 14:58:55
(UTC+00:00)

IRIDIUM 114 - Visible Passes

Search period start: 14 November 2025 00:00
Search period end: 24 November 2025 00:00
Orbit: 776 x 779 km, 86.4° (Epoch: 14 November)

Date Brightness Start Highest point End Pass type
(mag) Time Alt. Az. Time Alt. Az. Time Alt. Az.
15 Nov 6.7 19:58:27 12° SSE 19:58:27 12° SSE 19:58:46 10° SSE visible
16 Nov 6.6 19:24:13 11° SE 19:24:13 11° SE 19:24:27 10° SE visible
17 Nov 6.6 20:30:19 20° SSW 20:30:19 20° SSW 20:32:01 10° SSW visible
18 Nov 5.4 19:55:56 36° S 19:55:56 36° S 19:58:56 10° S visible
19 Nov 5.0 19:21:27 35° ESE 19:21:27 35° ESE 19:25:07 10° SSE visible
20 Nov 5.7 18:46:53 19° E 18:46:53 19° E 18:50:20 10° SE visible
20 Nov 6.3 20:27:16 24° W 20:27:16 24° W 20:31:22 10° SW visible
21 Nov 4.9 19:52:33 44° NW 19:53:44 54° W 19:58:49 10° SSW visible
22 Nov 4.2 19:17:42 30° NNE 19:20:16 67° E 19:25:27 10° S visible
23 Nov 5.1 18:42:37 11° NNE 18:46:48 30° E 18:51:18 10° SSE visible
23 Nov 7.0 20:24:19 10° NW 20:27:13 15° W 20:30:08 10° SW visible
